Weather in Gornyy Shumets

Russia / Mari El Republic     56°16′39″N   46°10′01″E
temp.,
°C
wind,
m/s
gust,
m/s
humid.,
%
clouds,
%
prec.,
mm/h
press.,
hPa
HPBL,
m
4 march, thu
thu400:00−4wsw51194100 0.4 1002609
03:00−3wsw41194100 0.6 1001505
06:00−3sw5119597 0.1 998496
09:00−1sw7149297 0.4 994877
12:00+1wsw814100100 1.6 9911135
15:000w7147999 2.1 9911495
18:00−4wnw5148533 0.1 995625
21:00−6w389439 0.1 997211
5 march, fri
fri500:00−11w349613 0.0 99860
03:00−14wnw22967 0.0 100120
06:00−16wnw129815 0.0 100220
09:00−12w239511 0.0 1004137
12:00−6wsw359258 0.0 1005381
15:00−5w468872 0.1 1006793
18:00−7wsw369398 0.1 1007134
21:00−10wsw339784 0.1 100949
6 march, sat
sat600:00−11w349695 0.0 101070
03:00−14wnw359796 0.1 1012117
06:00−15wnw2597100 0.1 1014119
09:00−15wnw249399 0.1 1015243
12:00−11wnw358798 0.0 1016640
15:00−10wnw358599 0.1 1014874
18:00−13w2396100 0.1 101431
21:00−16w229796 0.2 101420
7 march, sun
sun700:00−16wsw129897 0.1 101322
03:00−17sw229998 0.1 101220
06:00−19ssw239978 0.0 101121
09:00−14ssw479450 0.0 1009236
12:00−9s6108481 0.0 1005485
15:00−7ssw7139390 0.3 1002835
18:00−7ssw71493100 1.4 999975
21:00−6ssw71393100 2.3 995897
8 march, mon
mon800:00−6w81390100 1.3 993732
03:00−10wsw6148599 1.3 995571
06:00−13sw5128823 0.0 996363
09:00−11sw489161 0.0 997411
12:00−7sw488798 0.0 997563
15:00−5ssw368499 0.0 996724
18:00−9e1188100 0.0 99621
21:00−11wnw2292100 0.0 99824